When you browse on this site, cookies collect data to enhance your experience and personalize the content and advertising you see.
Visit our Privacy Policy to learn more. By continuing to use the site, you agree to this use of cookies and data.
  • In Österreich
  • Länderverzeichnis
  • Für 7 Tage
  • Wassertemperatur
  • Wetterkarte
  • News
  • Widgets
  • user-avatar
    Anmelden

    Stündliche Wetter Oruro

    Heute, 25 Februar, Dienstag

    Zeit Temperatur Niederschläge Wind Luftdruck Luftfeuchtigkeit
    00:00 +10°C° 0 mm 5 m/S 477 mmHg 57%
    01:00 +10°C° 0 mm 3 m/S 476 mmHg 58%
    02:00 +10°C° 0 mm 3 m/S 476 mmHg 63%
    03:00 +9°C° 0 mm 2 m/S 476 mmHg 65%
    04:00 +9°C° 0 mm 2 m/S 475 mmHg 67%
    05:00 +9°C° 0 mm 1 m/S 475 mmHg 69%
    06:00 +9°C° 0 mm 2 m/S 475 mmHg 67%
    07:00 +9°C° 0 mm 2 m/S 476 mmHg 64%
    08:00 +10°C° 0 mm 2 m/S 476 mmHg 64%
    09:00 +12°C° 0 mm 2 m/S 477 mmHg 58%
    10:00 +13°C° 0 mm 3 m/S 478 mmHg 52%
    11:00 +14°C° 0 mm 3 m/S 479 mmHg 47%
    12:00 +16°C° 0.1 mm 3 m/S 479 mmHg 43%
    13:00 +17°C° 0.1 mm 3 m/S 479 mmHg 39%
    14:00 +19°C° 0.1 mm 3 m/S 479 mmHg 35%
    15:00 +19°C° 0.1 mm 3 m/S 479 mmHg 33%
    16:00 +19°C° 0.1 mm 3 m/S 479 mmHg 32%
    17:00 +19°C° 0.1 mm 4 m/S 478 mmHg 31%
    18:00 +18°C° 0.1 mm 3 m/S 479 mmHg 34%
    19:00 +17°C° 0.1 mm 3 m/S 479 mmHg 38%
    20:00 +17°C° 0.1 mm 3 m/S 479 mmHg 42%
    21:00 +14°C° 0.1 mm 3 m/S 479 mmHg 46%
    22:00 +13°C° 0.1 mm 3 m/S 479 mmHg 50%
    23:00 +12°C° 0.1 mm 3 m/S 479 mmHg 54%

    Morgen, 26 Februar, Mittwoch

    Zeit Temperatur Niederschläge Wind Luftdruck Luftfeuchtigkeit
    00:00 +12°C° 0.1 mm 3 m/S 478 mmHg 56%
    01:00 +11°C° 0.1 mm 3 m/S 478 mmHg 57%
    02:00 +12°C° 0.1 mm 2 m/S 478 mmHg 58%
    03:00 +10°C° 0 mm 2 m/S 477 mmHg 61%
    04:00 +11°C° 0 mm 1 m/S 477 mmHg 63%
    05:00 +10°C° 0 mm 1 m/S 476 mmHg 66%
    06:00 +10°C° 0 mm 1 m/S 477 mmHg 65%
    07:00 +11°C° 0 mm 1 m/S 477 mmHg 64%
    08:00 +11°C° 0 mm 1 m/S 478 mmHg 63%
    09:00 +12°C° 0.1 mm 1 m/S 479 mmHg 60%
    10:00 +13°C° 0.1 mm 1 m/S 479 mmHg 56%
    11:00 +14°C° 0.1 mm 1 m/S 480 mmHg 53%
    12:00 +15°C° 0.8 mm 2 m/S 480 mmHg 52%
    13:00 +14°C° 0.8 mm 3 m/S 480 mmHg 51%
    14:00 +16°C° 0.8 mm 3 m/S 479 mmHg 51%
    15:00 +14°C° 1.2 mm 4 m/S 479 mmHg 53%
    16:00 +14°C° 1.2 mm 6 m/S 478 mmHg 55%
    17:00 +12°C° 1.2 mm 7 m/S 478 mmHg 58%
    18:00 +11°C° 0.3 mm 6 m/S 478 mmHg 61%
    19:00 +10°C° 0.3 mm 6 m/S 477 mmHg 65%
    20:00 +9°C° 0.3 mm 6 m/S 477 mmHg 69%
    21:00 +9°C° 0 mm 5 m/S 478 mmHg 70%
    22:00 +9°C° 0 mm 5 m/S 478 mmHg 71%
    23:00 +8°C° 0 mm 5 m/S 478 mmHg 72%

    übermorgen, 27 Februar, Donnerstag

    Zeit Temperatur Niederschläge Wind Luftdruck Luftfeuchtigkeit
    00:00 +8°C° 0 mm 4 m/S 478 mmHg 73%
    01:00 +9°C° 0 mm 3 m/S 477 mmHg 74%
    02:00 +8°C° 0 mm 2 m/S 477 mmHg 74%
    03:00 +8°C° 0 mm 2 m/S 477 mmHg 74%
    04:00 +8°C° 0 mm 2 m/S 477 mmHg 73%
    05:00 +8°C° 0 mm 2 m/S 477 mmHg 73%
    06:00 +9°C° 0 mm 2 m/S 477 mmHg 71%
    07:00 +9°C° 0 mm 2 m/S 478 mmHg 69%
    08:00 +9°C° 0 mm 2 m/S 478 mmHg 67%
    09:00 +12°C° 0 mm 2 m/S 479 mmHg 61%
    10:00 +13°C° 0 mm 2 m/S 480 mmHg 55%
    11:00 +15°C° 0 mm 1 m/S 480 mmHg 49%
    12:00 +15°C° 0.2 mm 2 m/S 480 mmHg 47%
    13:00 +16°C° 0.2 mm 2 m/S 480 mmHg 45%
    14:00 +17°C° 0.2 mm 2 m/S 480 mmHg 43%
    15:00 +17°C° 0.4 mm 3 m/S 479 mmHg 44%
    16:00 +17°C° 0.4 mm 4 m/S 479 mmHg 46%
    17:00 +15°C° 0.4 mm 5 m/S 478 mmHg 48%
    18:00 +14°C° 0.2 mm 5 m/S 478 mmHg 53%
    19:00 +13°C° 0.2 mm 5 m/S 478 mmHg 59%
    20:00 +12°C° 0.2 mm 5 m/S 477 mmHg 65%
    21:00 +10°C° 0.2 mm 5 m/S 478 mmHg 67%
    22:00 +10°C° 0.2 mm 5 m/S 478 mmHg 70%
    23:00 +11°C° 0.2 mm 4 m/S 478 mmHg 72%

    28 Februar, Freitag

    Zeit Temperatur Niederschläge Wind Luftdruck Luftfeuchtigkeit
    00:00 +10°C° 0.1 mm 4 m/S 478 mmHg 73%
    01:00 +10°C° 0.1 mm 4 m/S 477 mmHg 74%
    02:00 +8°C° 0.1 mm 4 m/S 477 mmHg 75%
    03:00 +9°C° 0 mm 3 m/S 477 mmHg 76%
    04:00 +8°C° 0 mm 3 m/S 476 mmHg 78%
    05:00 +8°C° 0 mm 2 m/S 476 mmHg 79%
    06:00 +8°C° 0 mm 2 m/S 477 mmHg 76%
    07:00 +10°C° 0 mm 1 m/S 477 mmHg 74%
    08:00 +10°C° 0 mm 1 m/S 478 mmHg 72%
    09:00 +12°C° 0 mm 1 m/S 478 mmHg 65%
    10:00 +13°C° 0 mm 2 m/S 479 mmHg 59%
    11:00 +14°C° 0 mm 2 m/S 480 mmHg 53%
    12:00 +16°C° 0.3 mm 2 m/S 480 mmHg 49%
    13:00 +17°C° 0.3 mm 2 m/S 480 mmHg 45%
    14:00 +18°C° 0.3 mm 2 m/S 480 mmHg 41%
    15:00 +18°C° 0.3 mm 3 m/S 480 mmHg 41%
    16:00 +18°C° 0.3 mm 4 m/S 479 mmHg 42%
    17:00 +17°C° 0.3 mm 5 m/S 479 mmHg 43%
    18:00 +15°C° 0.3 mm 5 m/S 479 mmHg 50%
    19:00 +14°C° 0.3 mm 6 m/S 478 mmHg 57%
    20:00 +11°C° 0.3 mm 6 m/S 478 mmHg 64%
    21:00 +11°C° 0.3 mm 6 m/S 478 mmHg 67%
    22:00 +10°C° 0.3 mm 5 m/S 478 mmHg 69%
    23:00 +10°C° 0.3 mm 5 m/S 478 mmHg 72%

    29 Februar, Samstag

    Zeit Temperatur Niederschläge Wind Luftdruck Luftfeuchtigkeit
    00:00 +10°C° 0.2 mm 4 m/S 478 mmHg 73%
    01:00 +10°C° 0.2 mm 4 m/S 478 mmHg 74%
    02:00 +10°C° 0.2 mm 3 m/S 477 mmHg 75%
    03:00 +9°C° 0.1 mm 3 m/S 477 mmHg 75%
    04:00 +9°C° 0.1 mm 3 m/S 477 mmHg 76%
    05:00 +9°C° 0.1 mm 3 m/S 477 mmHg 76%
    06:00 +9°C° 0.1 mm 3 m/S 478 mmHg 73%
    07:00 +10°C° 0.1 mm 2 m/S 478 mmHg 70%
    08:00 +10°C° 0.1 mm 2 m/S 479 mmHg 67%
    09:00 +11°C° 0.1 mm 3 m/S 480 mmHg 62%
    10:00 +12°C° 0.1 mm 3 m/S 480 mmHg 57%
    11:00 +14°C° 0.1 mm 3 m/S 481 mmHg 51%
    12:00 +15°C° 0.3 mm 4 m/S 481 mmHg 49%
    13:00 +17°C° 0.3 mm 4 m/S 481 mmHg 46%
    14:00 +16°C° 0.3 mm 5 m/S 481 mmHg 43%
    15:00 +16°C° 0.2 mm 6 m/S 480 mmHg 44%
    16:00 +16°C° 0.2 mm 7 m/S 480 mmHg 45%
    17:00 +16°C° 0.2 mm 8 m/S 479 mmHg 47%
    18:00 +13°C° 0 mm 8 m/S 479 mmHg 54%
    19:00 +11°C° 0 mm 8 m/S 478 mmHg 60%
    20:00 +8°C° 0 mm 9 m/S 478 mmHg 67%
    21:00 +9°C° 0.1 mm 8 m/S 478 mmHg 68%
    22:00 +9°C° 0.1 mm 8 m/S 478 mmHg 69%
    23:00 +7°C° 0.1 mm 8 m/S 479 mmHg 69%

    1 März, Sonntag

    Zeit Temperatur Niederschläge Wind Luftdruck Luftfeuchtigkeit
    00:00 +8°C° 0.1 mm 7 m/S 478 mmHg 71%
    01:00 +7°C° 0.1 mm 6 m/S 478 mmHg 73%
    02:00 +7°C° 0.1 mm 6 m/S 477 mmHg 74%
    03:00 +7°C° 0 mm 5 m/S 477 mmHg 74%
    04:00 +7°C° 0 mm 4 m/S 477 mmHg 74%
    05:00 +6°C° 0 mm 4 m/S 477 mmHg 74%
    06:00 +7°C° 0 mm 4 m/S 478 mmHg 71%
    07:00 +7°C° 0 mm 5 m/S 478 mmHg 69%
    08:00 +7°C° 0 mm 5 m/S 479 mmHg 66%
    09:00 +9°C° 0 mm 5 m/S 480 mmHg 60%
    10:00 +11°C° 0 mm 4 m/S 481 mmHg 55%
    11:00 +13°C° 0 mm 4 m/S 482 mmHg 49%
    12:00 +13°C° 0.2 mm 4 m/S 482 mmHg 49%
    13:00 +14°C° 0.2 mm 5 m/S 482 mmHg 48%
    14:00 +15°C° 0.2 mm 5 m/S 482 mmHg 48%
    15:00 +14°C° 0.5 mm 5 m/S 481 mmHg 49%
    16:00 +14°C° 0.5 mm 5 m/S 480 mmHg 50%
    17:00 +14°C° 0.5 mm 5 m/S 480 mmHg 51%
    18:00 +13°C° 0.2 mm 5 m/S 479 mmHg 55%
    19:00 +12°C° 0.2 mm 5 m/S 479 mmHg 59%
    20:00 +10°C° 0.2 mm 5 m/S 479 mmHg 64%
    21:00 +9°C° 0.1 mm 5 m/S 479 mmHg 65%
    22:00 +10°C° 0.1 mm 4 m/S 479 mmHg 67%
    23:00 +8°C° 0.1 mm 4 m/S 479 mmHg 69%
    Mehr zeigen